Location: Cheyres
(46.8153°N, 6.7877°E)
Time: 12:00:04
(UTC+00:00)

Gbstr 26 Del rocket - Pass Details

Date: 26 September 2021
Orbit: 492 x 1263 km, 51.8° (Epoch: 18 October)

Event Time Altitude Azimuth Distance (km) Brightness Sun altitude
Rises 21:10:56 0° 250° (WSW) 3,976 7.4 -36.3°
Reaches altitude 10° 21:13:35 10° 252° (WSW) 3,093 6.8 -36.6°
Enters shadow 21:19:09 52° 265° (W) 1,508 5.0 -37.3°
